Wind_Speed
17 19 22 22 22 26 29 26 28 29 31 31 33 33 34 33 32 30 29 29 31 30 27 25 24 25 24 26 31 35 32 31 31 28 25 17 10 17 24 25 25 20 19 19
18 22 22 21 24 27 28 29 30 32 32 32 30 32 33 33 32 28 26 27 29 25 23 22 21 21 22 24 30 32 27 22 20 21 17 15 11 9 12 15 17 19 21 18
20 21 20 18 21 23 26 25 30 32 32 31 32 32 32 32 28 26 27 26 25 22 21 19 16 16 19 22 26 26 20 15 15 18 21 18 16 15 15 18 19 20 21 20
19 18 17 18 20 23 24 25 31 30 29 31 33 34 35 34 30 26 24 25 25 23 20 18 16 14 15 16 17 18 16 12 11 14 17 18 16 18 20 17 17 18 19 17
26 22 21 22 20 23 25 24 31 32 32 34 34 34 34 37 33 29 24 25 25 24 21 18 17 15 13 13 14 14 14 13 12 13 14 16 17 21 22 22 21 18 20 18
27 28 24 27 27 29 30 31 31 30 31 34 37 36 34 37 36 33 26 24 24 24 22 18 15 14 12 9 8 10 12 14 17 18 20 21 20 22 26 26 23 20 18 17
32 31 32 32 32 33 35 36 36 35 34 34 36 37 36 36 37 35 31 25 23 23 24 19 14 13 11 8 6 6 8 10 14 16 17 16 16 20 23 22 20 19 16 16
37 37 37 36 38 39 41 41 40 39 40 40 39 37 37 37 36 36 34 28 22 22 23 20 19 18 17 14 11 10 12 12 13 13 13 12 12 13 13 11 11 10 9 10
41 41 43 43 44 48 50 48 48 47 45 42 40 39 36 37 37 35 36 31 25 25 25 22 21 20 20 19 16 15 14 12 11 10 9 8 7 6 7 9 9 7 8 10
44 45 48 49 53 56 57 56 54 52 52 50 44 41 36 35 38 36 36 36 30 27 26 25 25 24 22 20 18 17 14 11 8 6 5 5 5 5 7 8 9 9 10 11
47 51 52 52 55 57 59 62 62 58 51 49 46 46 44 39 37 40 39 37 33 30 29 29 29 27 26 25 21 19 16 13 10 7 6 5 6 7 7 8 9 9 10 11
50 54 56 55 58 61 61 64 65 60 49 45 51 49 44 43 40 40 39 39 35 33 33 29 29 29 27 25 23 21 20 17 16 13 11 10 10 9 9 10 10 11 11 12
54 56 58 59 63 65 65 65 67 63 59 63 61 46 39 46 43 41 41 40 38 35 33 28 30 31 31 29 27 25 24 22 20 19 18 17 17 16 16 15 15 17 17 16
59 60 60 62 64 69 68 67 64 61 59 64 61 55 49 49 48 44 45 45 40 37 34 33 34 35 36 36 33 31 29 27 24 22 21 21 21 21 21 20 19 19 20 21
60 60 60 61 62 66 70 61 55 60 58 57 53 59 54 50 51 47 46 45 39 38 33 35 35 38 40 40 40 37 34 32 28 26 24 23 23 23 22 22 21 19 20 20
64 62 56 59 65 66 69 67 63 64 67 68 63 60 54 50 47 43 40 40 41 38 37 37 34 31 30 31 35 40 37 35 33 30 28 27 26 24 24 23 22 20 19 19
67 63 64 67 68 75 81 81 70 70 75 73 66 59 51 49 43 40 44 39 42 41 38 35 30 26 25 25 23 29 34 33 30 28 27 27 27 26 24 23 23 21 21 21
69 71 71 72 74 69 66 60 60 61 59 59 62 65 61 50 46 48 48 40 41 40 38 33 30 28 23 23 20 22 25 26 25 23 24 25 25 24 22 22 22 22 22 22
68 65 61 58 59 62 63 56 45 43 47 47 45 55 68 62 51 49 47 42 35 40 43 40 37 37 32 26 23 23 24 24 24 23 22 23 23 22 21 20 20 20 21 22
58 57 58 57 56 54 45 35 38 42 43 43 40 36 47 59 58 52 47 37 34 37 39 40 38 37 31 27 25 24 24 23 22 21 20 21 21 20 20 19 19 19 19 21
59 58 56 54 49 44 42 45 51 51 45 36 35 33 32 42 52 53 50 38 34 31 35 42 44 35 27 25 23 22 22 22 21 20 20 20 19 19 18 18 18 19 20 19
55 52 46 41 39 39 41 44 43 41 37 29 29 29 21 23 32 42 51 46 37 32 33 39 45 38 26 23 20 20 22 22 22 20 19 19 18 17 16 16 16 18 19 18
44 40 38 39 39 38 37 38 39 38 34 26 27 26 17 19 24 31 44 44 37 33 32 33 43 41 31 24 21 23 23 22 21 20 20 19 18 17 16 16 15 16 17 18
39 40 41 42 45 46 48 48 46 43 35 25 17 17 13 19 25 33 40 39 34 29 24 25 41 41 33 28 26 26 26 24 22 20 19 17 18 17 15 14 12 13 16 17
40 41 44 49 51 52 51 47 43 38 31 25 17 11 9 18 27 35 38 35 34 28 22 35 48 40 33 28 25 26 26 25 24 23 22 20 19 18 17 15 12 11 14 15
38 41 45 45 44 45 43 39 37 30 24 20 16 17 12 14 27 36 37 33 31 26 21 37 49 40 33 30 27 27 27 27 26 24 22 21 21 20 19 18 15 12 11 13
36 39 38 37 36 33 33 36 35 26 17 10 7 4 8 20 32 36 34 30 23 17 20 35 48 43 35 33 30 30 30 30 28 25 23 22 22 21 21 20 17 14 12 12
Wind_Direction
318 311 311 315 304 294 296 302 306 310 310 312 313 316 315 312 302 293 280 281 287 293 300 304 304 314 309 303 307 307 297 286 284 277 283 278 263 247 238 242 243 249 258 262
323 318 320 320 306 304 307 314 314 314 317 315 313 314 317 314 307 295 282 281 281 286 298 301 304 318 313 312 320 316 300 278 275 273 280 282 284 278 260 253 252 258 261 263
332 327 327 322 312 313 318 321 318 325 330 322 320 322 321 320 320 301 283 279 277 284 295 297 298 315 316 318 331 328 313 278 266 267 280 285 286 288 281 269 262 261 264 266
329 332 335 326 317 316 316 315 314 319 318 316 320 321 320 319 318 309 293 269 269 282 289 291 285 297 308 319 332 332 315 287 263 264 276 283 287 289 289 283 274 266 262 266
329 329 334 319 317 318 316 311 310 312 312 312 315 316 316 314 318 310 299 274 263 278 284 284 277 276 286 300 311 316 310 301 287 274 268 264 265 269 273 271 272 274 265 260
316 317 323 313 317 315 313 308 307 305 305 305 307 311 308 308 313 312 305 285 258 270 279 275 271 263 265 275 288 299 302 302 295 287 278 271 266 262 264 269 271 269 264 261
310 311 313 310 309 306 304 303 305 302 300 296 297 301 303 304 305 310 307 295 257 263 271 262 254 249 240 238 254 289 297 298 298 294 289 285 274 264 265 263 256 249 249 243
308 311 307 306 305 302 299 300 302 299 297 296 296 296 295 298 299 303 306 299 266 255 263 255 243 243 242 236 245 274 286 288 289 290 292 286 272 261 253 239 239 224 225 244
303 304 303 303 302 300 301 301 300 299 297 294 293 291 290 290 293 295 298 297 280 256 250 250 246 244 243 238 250 268 275 282 287 287 274 260 240 207 203 219 233 238 248 256
304 303 300 300 299 298 301 303 303 303 301 296 290 286 285 283 284 285 288 289 285 271 256 246 248 245 242 240 248 257 258 263 277 283 260 228 210 190 198 217 228 236 247 254
304 299 296 295 293 293 298 301 303 305 303 297 290 290 285 282 280 281 283 280 279 274 269 248 246 247 245 245 245 245 245 247 247 248 245 237 226 219 215 221 232 238 243 250
301 298 296 294 293 292 294 295 295 297 291 278 284 292 281 272 274 275 276 275 274 272 273 252 238 241 240 239 238 237 239 241 242 240 239 240 242 237 234 232 239 250 255 258
301 299 297 294 293 293 295 293 293 291 285 282 284 288 280 269 267 266 269 269 267 269 270 254 234 234 235 236 237 237 240 240 242 242 242 241 241 242 246 250 248 249 253 255
299 297 296 293 291 291 291 287 290 286 278 275 280 285 285 271 264 261 259 260 257 258 260 259 241 232 231 232 234 237 240 242 242 241 241 241 239 239 243 248 251 252 253 252
303 302 298 293 293 291 286 286 286 284 277 271 275 286 290 275 268 266 259 259 257 251 245 251 249 239 235 234 235 232 237 242 242 244 245 245 245 243 244 245 248 250 249 249
314 313 306 292 292 297 291 287 282 281 283 283 284 283 281 274 268 262 258 255 254 251 240 236 237 246 249 258 257 236 231 238 241 245 246 248 249 249 248 246 246 248 248 249
316 308 297 288 290 293 291 291 289 288 289 286 281 274 268 260 257 260 262 256 244 245 235 234 235 248 261 263 251 235 229 232 236 239 244 250 251 250 249 248 247 249 249 249
299 300 299 297 299 302 302 304 300 295 293 287 281 272 259 249 248 254 258 252 240 227 224 233 243 248 252 253 236 226 226 226 228 240 248 246 243 245 249 250 250 249 249 248
308 310 311 310 310 310 310 311 310 313 315 314 295 269 257 250 245 246 253 250 236 219 221 228 237 243 242 235 223 220 220 223 232 241 242 241 242 248 255 260 259 250 250 252
314 313 310 310 310 310 313 317 317 316 316 316 317 294 261 252 246 247 255 248 236 224 221 231 235 235 231 218 214 211 213 221 230 234 237 240 243 251 262 270 267 254 249 250
316 314 313 312 312 311 311 311 311 312 312 312 316 312 276 253 245 244 245 240 235 226 225 229 230 225 212 211 202 201 208 216 223 227 231 237 244 252 259 266 266 264 259 251
322 321 321 322 323 319 316 315 316 318 323 316 312 315 279 236 231 236 239 237 230 224 224 222 221 217 214 205 199 201 208 214 220 224 227 233 240 245 255 267 273 272 264 253
336 336 335 333 331 328 325 324 323 320 318 317 314 316 281 219 210 217 228 230 229 229 222 221 218 208 199 199 204 206 210 216 221 222 225 231 239 244 254 265 269 265 256 252
337 335 334 333 332 329 325 321 316 311 302 293 308 318 278 216 201 207 217 226 231 224 221 221 211 197 201 208 209 211 215 219 221 223 229 236 244 247 255 266 269 261 252 247
334 334 335 335 334 331 328 327 323 319 314 299 282 293 276 211 195 197 207 219 230 229 218 195 189 194 207 217 216 216 218 221 227 232 238 245 250 248 247 254 272 274 256 247
334 335 335 337 337 339 345 349 347 335 319 312 296 277 275 213 187 187 193 206 222 230 221 201 197 200 209 214 219 222 224 228 231 235 241 244 247 250 247 250 265 272 267 256
337 337 340 344 348 357 3 1 1 357 346 347 354 291 219 182 170 171 181 195 206 217 191 193 203 208 216 221 218 222 227 231 234 238 243 244 247 249 247 247 251 259 267 269
Height
5826 5821 5818 5815 5811 5806 5802 5800 5797 5794 5789 5784 5779 5775 5770 5765 5760 5758 5757 5755 5753 5752 5749 5743 5739 5732 5726 5723 5717 5712 5707 5704 5708 5709 5710 5710 5708 5708 5711 5714 5715 5717 5721 5724
5821 5816 5813 5809 5804 5800 5798 5795 5791 5788 5784 5778 5772 5767 5762 5756 5751 5749 5746 5746 5744 5744 5741 5737 5733 5726 5721 5717 5711 5704 5699 5699 5701 5703 5703 5704 5706 5705 5707 5709 5710 5713 5716 5719
5816 5812 5808 5804 5800 5796 5792 5789 5783 5780 5778 5772 5767 5762 5756 5750 5745 5741 5738 5736 5736 5735 5733 5730 5727 5721 5716 5711 5704 5698 5695 5694 5695 5697 5699 5701 5702 5702 5703 5704 5704 5708 5712 5714
5811 5808 5804 5802 5794 5791 5788 5783 5778 5774 5769 5764 5759 5755 5749 5743 5739 5733 5730 5728 5727 5726 5725 5723 5720 5716 5713 5708 5703 5699 5695 5694 5693 5693 5695 5695 5697 5698 5699 5700 5701 5703 5707 5707
5805 5801 5798 5793 5788 5783 5780 5777 5769 5765 5760 5754 5749 5745 5740 5734 5732 5726 5721 5718 5717 5717 5716 5716 5713 5711 5709 5705 5701 5698 5696 5693 5691 5692 5692 5692 5693 5694 5693 5694 5695 5697 5700 5702
5798 5793 5792 5788 5781 5776 5772 5766 5760 5756 5752 5747 5741 5738 5735 5727 5723 5719 5714 5709 5708 5708 5708 5708 5706 5705 5704 5702 5699 5695 5693 5691 5689 5686 5685 5685 5686 5687 5687 5687 5689 5692 5694 5696
5792 5787 5784 5780 5774 5768 5763 5759 5753 5747 5743 5738 5733 5729 5725 5720 5716 5712 5707 5702 5699 5699 5699 5699 5700 5700 5699 5698 5696 5693 5691 5688 5686 5684 5682 5680 5680 5680 5681 5682 5685 5688 5689 5690
5785 5781 5777 5770 5764 5758 5753 5747 5743 5738 5734 5729 5724 5719 5715 5710 5706 5703 5700 5696 5691 5690 5691 5692 5693 5694 5694 5694 5693 5691 5689 5687 5684 5682 5680 5679 5678 5678 5679 5681 5682 5684 5685 5686
5778 5774 5767 5758 5752 5745 5739 5735 5730 5726 5722 5717 5713 5709 5704 5701 5697 5693 5691 5689 5685 5682 5681 5683 5685 5687 5687 5687 5687 5687 5686 5684 5683 5680 5679 5678 5677 5677 5678 5679 5680 5681 5681 5681
5768 5763 5754 5747 5737 5729 5724 5719 5714 5711 5706 5702 5699 5696 5692 5688 5686 5682 5680 5679 5677 5675 5673 5674 5676 5678 5679 5680 5681 5681 5681 5681 5680 5679 5677 5677 5676 5675 5677 5678 5679 5679 5680 5681
5754 5746 5740 5732 5723 5716 5710 5704 5699 5695 5690 5685 5682 5682 5680 5676 5673 5670 5667 5666 5667 5665 5664 5665 5667 5669 5670 5672 5673 5674 5675 5676 5676 5675 5674 5674 5675 5675 5675 5677 5677 5677 5677 5677
5738 5730 5723 5717 5709 5702 5696 5688 5682 5679 5677 5672 5665 5665 5664 5662 5659 5656 5654 5653 5654 5654 5653 5653 5656 5659 5661 5663 5665 5667 5668 5669 5670 5671 5670 5671 5671 5672 5673 5674 5675 5675 5675 5675
5721 5714 5706 5699 5691 5682 5676 5669 5664 5659 5655 5650 5646 5645 5645 5645 5643 5643 5641 5640 5641 5642 5642 5642 5644 5647 5650 5654 5657 5659 5661 5662 5663 5664 5665 5666 5667 5668 5668 5669 5670 5671 5671 5671
5704 5697 5689 5681 5674 5665 5656 5648 5641 5636 5632 5627 5625 5624 5626 5626 5626 5626 5625 5625 5627 5629 5630 5631 5633 5635 5639 5642 5646 5649 5651 5654 5655 5657 5658 5659 5661 5662 5662 5663 5664 5664 5665 5666
5687 5677 5668 5659 5650 5641 5632 5626 5621 5615 5610 5606 5605 5603 5605 5605 5606 5608 5609 5610 5613 5616 5618 5620 5623 5625 5627 5630 5633 5636 5640 5644 5647 5649 5651 5652 5653 5654 5656 5657 5658 5658 5658 5659
5663 5652 5643 5635 5627 5618 5610 5604 5598 5593 5588 5584 5585 5586 5585 5584 5586 5588 5592 5596 5600 5603 5605 5607 5611 5615 5618 5621 5622 5624 5629 5634 5637 5640 5642 5643 5645 5647 5648 5650 5651 5652 5651 5652
5640 5633 5627 5618 5606 5598 5588 5581 5571 5564 5560 5557 5558 5561 5564 5566 5568 5570 5574 5578 5583 5588 5591 5595 5600 5604 5608 5610 5610 5613 5619 5624 5627 5631 5634 5635 5637 5639 5641 5642 5643 5644 5645 5645
5623 5611 5599 5588 5579 5569 5559 5552 5545 5539 5536 5531 5526 5531 5538 5544 5548 5552 5556 5561 5565 5572 5579 5584 5591 5595 5600 5603 5603 5605 5610 5615 5619 5623 5626 5628 5630 5632 5633 5634 5635 5637 5637 5638
5601 5591 5580 5570 5560 5549 5539 5533 5527 5520 5513 5505 5500 5502 5510 5519 5527 5533 5538 5545 5551 5558 5567 5572 5578 5583 5590 5594 5596 5598 5603 5608 5612 5615 5618 5621 5624 5626 5627 5628 5628 5629 5630 5631
5585 5576 5566 5555 5546 5535 5527 5521 5516 5510 5502 5495 5487 5482 5486 5494 5504 5514 5522 5530 5535 5542 5551 5560 5566 5572 5579 5584 5586 5590 5595 5601 5605 5608 5612 5615 5617 5619 5621 5622 5622 5623 5623 5624
5567 5558 5549 5541 5533 5525 5518 5511 5503 5496 5488 5482 5477 5471 5469 5475 5486 5498 5510 5520 5525 5531 5540 5548 5555 5564 5570 5575 5579 5582 5588 5594 5598 5602 5606 5608 5611 5613 5614 5616 5617 5617 5618 5618
5550 5541 5534 5528 5522 5516 5509 5501 5492 5484 5477 5471 5467 5462 5458 5462 5471 5484 5497 5507 5515 5522 5529 5536 5544 5553 5563 5569 5573 5577 5583 5588 5592 5596 5599 5602 5605 5607 5609 5610 5610 5611 5612 5612
5542 5534 5527 5521 5514 5507 5500 5492 5483 5476 5470 5463 5457 5454 5450 5452 5460 5472 5486 5496 5504 5511 5518 5525 5533 5542 5552 5561 5566 5572 5578 5584 5588 5591 5593 5596 5599 5602 5603 5604 5605 5605 5607 5608
5540 5532 5524 5516 5508 5499 5490 5481 5472 5465 5459 5454 5450 5446 5443 5445 5452 5464 5477 5487 5495 5501 5507 5514 5525 5535 5545 5553 5559 5566 5573 5579 5583 5586 5589 5591 5594 5596 5597 5598 5600 5600 5600 5602
5537 5528 5519 5510 5500 5489 5478 5468 5460 5452 5445 5442 5442 5442 5441 5442 5447 5458 5472 5482 5491 5496 5502 5510 5522 5530 5539 5548 5554 5560 5566 5572 5576 5580 5583 5586 5588 5590 5591 5593 5594 5595 5596 5597
5534 5525 5516 5505 5494 5483 5472 5463 5454 5445 5438 5434 5433 5434 5436 5439 5446 5457 5469 5479 5487 5493 5499 5504 5516 5526 5535 5544 5549 5555 5561 5566 5569 5573 5576 5578 5581 5583 5585 5588 5589 5590 5590 5591
5532 5523 5513 5504 5494 5484 5475 5468 5457 5444 5435 5432 5430 5429 5431 5437 5446 5458 5470 5479 5487 5494 5499 5504 5512 5520 5529 5537 5544 5550 5555 5559 5563 5567 5570 5572 5575 5578 5580 5582 5583 5585 5586 5586